Time,TemperatureF,DewpointF,PressureIn,WindDirection,WindDirectionDegrees,WindSpeedMPH,WindSpeedGustMPH,Humidity,HourlyPrecipIn,Conditions,Clouds,dailyrainin,SoftwareType,DateUTC
2013-06-10 00:02:00,55.4,52.8,29.95,SE,129,0.0,0.0,91,0.00,,---,0.00,VWS V14.01,2013-06-10 07:02:00,
2013-06-10 00:07:00,55.6,53.3,29.96,SE,129,0.0,0.0,92,0.00,,---,0.00,VWS V14.01,2013-06-10 07:07:00,
2013-06-10 00:12:00,55.7,53.7,29.95,SE,129,0.0,0.0,93,0.00,,---,0.00,VWS V14.01,2013-06-10 07:12:00,
2013-06-10 00:17:00,55.7,53.7,29.96,SE,129,0.0,0.0,93,0.00,,---,0.00,VWS V14.01,2013-06-10 07:17:00,
2013-06-10 00:22:00,55.6,53.6,29.95,SE,129,0.0,0.0,93,0.00,,---,0.00,VWS V14.01,2013-06-10 07:22:00,
2013-06-10 00:27:00,55.5,53.2,29.95,SE,129,0.0,0.0,92,0.00,,---,0.00,VWS V14.01,2013-06-10 07:27:00,
2013-06-10 00:32:00,55.4,53.1,29.95,SE,129,0.0,0.0,92,0.00,,---,0.00,VWS V14.01,2013-06-10 07:32:00,
2013-06-10 00:37:00,55.3,53.0,29.95,SE,129,0.0,0.0,92,0.00,,---,0.00,VWS V14.01,2013-06-10 07:37:00,
2013-06-10 00:42:00,55.3,53.0,29.95,SE,129,0.0,0.0,92,0.00,,---,0.00,VWS V14.01,2013-06-10 07:42:00,
2013-06-10 00:47:00,55.4,53.4,29.95,SE,129,0.0,0.0,93,0.00,,---,0.00,VWS V14.01,2013-06-10 07:47:00,
2013-06-10 00:52:00,55.7,54.0,29.95,SE,129,0.0,0.0,94,0.00,,---,0.00,VWS V14.01,2013-06-10 07:52:00,
2013-06-10 00:57:00,56.0,54.3,29.95,SE,129,0.0,0.0,94,0.00,,---,0.00,VWS V14.01,2013-06-10 07:57:00,
2013-06-10 01:02:00,56.1,54.4,29.95,SE,129,0.0,0.0,94,0.00,,---,0.00,VWS V14.01,2013-06-10 08:02:00,
2013-06-10 01:07:00,56.3,54.6,29.94,SE,129,0.0,0.0,94,0.00,,---,0.00,VWS V14.01,2013-06-10 08:07:00,
2013-06-10 01:12:00,56.4,54.7,29.94,SE,129,0.0,0.0,94,0.00,,---,0.00,VWS V14.01,2013-06-10 08:12:00,
2013-06-10 01:17:00,56.5,54.8,29.94,SE,129,0.0,0.0,94,0.00,,---,0.00,VWS V14.01,2013-06-10 08:17:00,
2013-06-10 01:22:00,56.8,55.1,29.94,SE,129,0.0,0.0,94,0.00,,---,0.00,VWS V14.01,2013-06-10 08:22:00,
2013-06-10 01:27:00,56.9,54.9,29.94,SE,129,0.0,0.0,93,0.00,,---,0.00,VWS V14.01,2013-06-10 08:27:00,
2013-06-10 01:32:00,57.1,55.1,29.94,SE,129,0.0,0.0,93,0.00,,---,0.00,VWS V14.01,2013-06-10 08:32:00,
2013-06-10 01:37:00,57.2,55.2,29.94,SE,129,0.0,0.0,93,0.00,,---,0.00,VWS V14.01,2013-06-10 08:37:00,
2013-06-10 01:42:00,57.3,55.3,29.95,SE,129,0.0,0.0,93,0.00,,---,0.00,VWS V14.01,2013-06-10 08:42:00,
2013-06-10 01:47:00,57.5,55.5,29.95,SE,129,0.0,0.0,93,0.00,,---,0.00,VWS V14.01,2013-06-10 08:47:00,
2013-06-10 01:52:00,57.6,55.6,29.95,SE,129,0.0,0.0,93,0.00,,---,0.00,VWS V14.01,2013-06-10 08:52:00,
2013-06-10 01:57:00,57.7,55.7,29.95,SE,129,0.0,0.0,93,0.00,,---,0.00,VWS V14.01,2013-06-10 08:57:00,
2013-06-10 02:02:00,57.9,55.9,29.95,SE,129,0.0,0.0,93,0.00,,---,0.00,VWS V14.01,2013-06-10 09:02:00,
2013-06-10 02:07:00,58.0,55.7,29.94,SE,129,0.0,0.0,92,0.00,,---,0.00,VWS V14.01,2013-06-10 09:07:00,
2013-06-10 02:12:00,58.1,55.8,29.95,SE,129,0.0,0.0,92,0.00,,---,0.00,VWS V14.01,2013-06-10 09:12:00,
2013-06-10 02:17:00,58.2,55.9,29.95,SE,129,0.0,0.0,92,0.00,,---,0.00,VWS V14.01,2013-06-10 09:17:00,
2013-06-10 02:22:00,58.2,55.9,29.95,SE,129,0.0,0.0,92,0.00,,---,0.00,VWS V14.01,2013-06-10 09:22:00,
2013-06-10 02:27:00,58.4,56.1,29.95,SE,129,0.0,0.0,92,0.00,,---,0.00,VWS V14.01,2013-06-10 09:27:00,
2013-06-10 02:32:00,58.5,56.2,29.95,SE,129,0.0,0.0,92,0.00,,---,0.00,VWS V14.01,2013-06-10 09:32:00,
2013-06-10 02:37:00,58.6,56.3,29.95,SE,129,0.0,0.0,92,0.00,,---,0.00,VWS V14.01,2013-06-10 09:37:00,
2013-06-10 02:42:00,58.6,56.3,29.95,SE,129,0.0,0.0,92,0.00,,---,0.00,VWS V14.01,2013-06-10 09:42:00,
2013-06-10 02:47:00,58.7,56.1,29.95,SE,129,0.0,0.0,91,0.00,,---,0.00,VWS V14.01,2013-06-10 09:47:00,
2013-06-10 02:52:00,58.7,56.1,29.95,SE,129,0.0,0.0,91,0.00,,---,0.00,VWS V14.01,2013-06-10 09:52:00,
2013-06-10 02:57:00,58.8,56.2,29.95,SE,129,0.0,1.0,91,0.00,,---,0.00,VWS V14.01,2013-06-10 09:57:00,
2013-06-10 03:02:00,58.9,56.0,29.95,SE,129,0.0,0.0,90,0.00,,---,0.00,VWS V14.01,2013-06-10 10:02:00,
2013-06-10 03:07:00,59.0,56.1,29.95,SE,129,0.0,0.0,90,0.00,,---,0.00,VWS V14.01,2013-06-10 10:07:00,
2013-06-10 03:12:00,59.1,56.2,29.95,SE,129,0.0,0.0,90,0.00,,---,0.00,VWS V14.01,2013-06-10 10:12:00,
2013-06-10 03:17:00,59.1,56.2,29.95,SE,129,0.0,0.0,90,0.00,,---,0.00,VWS V14.01,2013-06-10 10:17:00,
2013-06-10 03:22:00,59.2,56.3,29.95,SE,129,0.0,1.0,90,0.00,,---,0.00,VWS V14.01,2013-06-10 10:22:00,
2013-06-10 03:27:00,59.2,56.3,29.95,SE,129,0.0,1.0,90,0.00,,---,0.00,VWS V14.01,2013-06-10 10:27:00,
2013-06-10 03:32:00,59.2,56.0,29.95,SE,129,0.0,1.0,89,0.00,,---,0.00,VWS V14.01,2013-06-10 10:32:00,
2013-06-10 03:37:00,59.3,56.1,29.95,SE,129,0.0,1.0,89,0.00,,---,0.00,VWS V14.01,2013-06-10 10:37:00,
2013-06-10 03:42:00,59.3,56.1,29.95,SE,129,0.0,1.0,89,0.00,,---,0.00,VWS V14.01,2013-06-10 10:42:00,
2013-06-10 03:47:00,59.3,56.1,29.95,SE,129,0.0,1.0,89,0.00,,---,0.00,VWS V14.01,2013-06-10 10:47:00,
2013-06-10 03:52:00,59.3,56.1,29.95,SE,129,0.0,1.0,89,0.00,,---,0.00,VWS V14.01,2013-06-10 10:52:00,
2013-06-10 03:57:00,59.3,56.1,29.95,SE,129,0.0,1.0,89,0.00,,---,0.00,VWS V14.01,2013-06-10 10:57:00,
2013-06-10 04:02:00,59.3,56.1,29.95,SE,129,0.0,0.0,89,0.00,,---,0.00,VWS V14.01,2013-06-10 11:02:00,
2013-06-10 04:07:00,59.3,56.1,29.95,SE,129,0.0,0.0,89,0.00,,---,0.00,VWS V14.01,2013-06-10 11:07:00,
2013-06-10 04:12:00,59.3,56.1,29.95,SE,129,0.0,0.0,89,0.00,,---,0.00,VWS V14.01,2013-06-10 11:12:00,
2013-06-10 04:17:00,59.3,56.1,29.95,SE,129,0.0,0.0,89,0.00,,---,0.00,VWS V14.01,2013-06-10 11:17:00,
2013-06-10 04:22:00,59.4,56.2,29.95,SE,129,0.0,0.0,89,0.00,,---,0.00,VWS V14.01,2013-06-10 11:22:00,
2013-06-10 04:27:00,59.4,56.2,29.95,SE,129,0.0,0.0,89,0.00,,---,0.00,VWS V14.01,2013-06-10 11:27:00,
2013-06-10 04:32:00,59.4,56.2,29.95,SE,129,0.0,0.0,89,0.00,,---,0.00,VWS V14.01,2013-06-10 11:32:00,
2013-06-10 04:37:00,59.5,56.3,29.95,SE,129,0.0,0.0,89,0.00,,---,0.00,VWS V14.01,2013-06-10 11:37:00,
2013-06-10 04:42:00,59.5,56.3,29.95,SE,129,0.0,0.0,89,0.00,,---,0.00,VWS V14.01,2013-06-10 11:42:00,
2013-06-10 04:47:00,59.5,56.3,29.95,SE,129,0.0,0.0,89,0.00,,---,0.00,VWS V14.01,2013-06-10 11:47:00,
2013-06-10 04:52:00,59.5,56.3,29.95,SE,129,0.0,0.0,89,0.00,,---,0.00,VWS V14.01,2013-06-10 11:52:00,
2013-06-10 04:57:00,59.5,56.0,29.95,SE,129,0.0,1.0,88,0.00,,---,0.00,VWS V14.01,2013-06-10 11:57:00,
2013-06-10 05:02:00,59.6,56.0,29.95,SE,129,0.0,0.0,88,0.00,,---,0.00,VWS V14.01,2013-06-10 12:02:00,
2013-06-10 05:07:00,59.6,56.0,29.95,SE,129,0.0,0.0,88,0.00,,---,0.00,VWS V14.01,2013-06-10 12:07:00,
2013-06-10 05:12:00,59.6,56.4,29.95,SE,129,0.0,0.0,89,0.00,,---,0.00,VWS V14.01,2013-06-10 12:12:00,
2013-06-10 05:17:00,59.5,56.0,29.96,SE,129,0.0,0.0,88,0.00,,---,0.00,VWS V14.01,2013-06-10 12:17:00,
2013-06-10 05:22:00,59.5,56.3,29.96,SE,129,0.0,0.0,89,0.00,,---,0.00,VWS V14.01,2013-06-10 12:22:00,
2013-06-10 05:27:00,59.5,56.0,29.96,SE,129,0.0,1.0,88,0.00,,---,0.00,VWS V14.01,2013-06-10 12:27:00,
2013-06-10 05:32:00,59.5,56.0,29.96,SE,129,0.0,0.0,88,0.00,,---,0.00,VWS V14.01,2013-06-10 12:32:00,
2013-06-10 05:37:00,59.6,56.0,29.96,SE,129,0.0,1.0,88,0.00,,---,0.00,VWS V14.01,2013-06-10 12:37:00,
2013-06-10 05:42:00,59.6,56.0,29.96,SE,129,0.0,1.0,88,0.00,,---,0.00,VWS V14.01,2013-06-10 12:42:00,
2013-06-10 05:47:00,59.6,56.0,29.96,SE,129,0.0,1.0,88,0.00,,---,0.00,VWS V14.01,2013-06-10 12:47:00,
2013-06-10 05:52:00,59.6,56.0,29.96,SE,129,0.0,1.0,88,0.00,,---,0.00,VWS V14.01,2013-06-10 12:52:00,
2013-06-10 05:57:00,59.7,56.2,29.97,ENE,73,0.0,2.0,88,0.00,,---,0.00,VWS V14.01,2013-06-10 12:57:00,
2013-06-10 06:02:00,59.7,56.2,29.97,ENE,73,0.0,0.0,88,0.00,,---,0.00,VWS V14.01,2013-06-10 13:02:00,
2013-06-10 06:07:00,59.7,56.2,29.97,East,81,0.0,0.0,88,0.00,,---,0.00,VWS V14.01,2013-06-10 13:07:00,
2013-06-10 06:12:00,59.8,55.9,29.97,East,81,0.0,0.0,87,0.00,,---,0.00,VWS V14.01,2013-06-10 13:12:00,
2013-06-10 06:17:00,59.8,56.2,29.97,East,81,0.0,0.0,88,0.00,,---,0.00,VWS V14.01,2013-06-10 13:17:00,
2013-06-10 06:22:00,59.9,56.0,29.97,East,81,0.0,1.0,87,0.00,,---,0.00,VWS V14.01,2013-06-10 13:22:00,
2013-06-10 06:27:00,60.0,56.1,29.97,East,81,0.0,1.0,87,0.00,,---,0.00,VWS V14.01,2013-06-10 13:27:00,
2013-06-10 06:32:00,60.0,56.1,29.98,East,81,0.0,1.0,87,0.00,,---,0.00,VWS V14.01,2013-06-10 13:32:00,
2013-06-10 06:37:00,60.1,56.2,29.98,East,81,0.0,1.0,87,0.00,,---,0.00,VWS V14.01,2013-06-10 13:37:00,
2013-06-10 06:42:00,60.2,56.3,29.98,East,81,0.0,1.0,87,0.00,,---,0.00,VWS V14.01,2013-06-10 13:42:00,
2013-06-10 06:47:00,60.2,56.0,29.98,East,81,0.0,1.0,86,0.00,,---,0.00,VWS V14.01,2013-06-10 13:47:00,
2013-06-10 06:52:00,60.3,56.1,29.98,East,81,0.0,1.0,86,0.00,,---,0.00,VWS V14.01,2013-06-10 13:52:00,
2013-06-10 06:57:00,60.3,56.1,29.98,East,81,0.0,1.0,86,0.00,,---,0.00,VWS V14.01,2013-06-10 13:57:00,
2013-06-10 07:02:00,60.4,56.2,29.98,East,81,0.0,0.0,86,0.00,,---,0.00,VWS V14.01,2013-06-10 14:02:00,
2013-06-10 07:07:00,60.5,56.0,29.98,East,81,0.0,0.0,85,0.00,,---,0.00,VWS V14.01,2013-06-10 14:07:00,
2013-06-10 07:12:00,60.6,56.1,29.99,East,81,0.0,0.0,85,0.00,,---,0.00,VWS V14.01,2013-06-10 14:12:00,
2013-06-10 07:17:00,60.7,56.2,29.99,East,81,0.0,0.0,85,0.00,,---,0.00,VWS V14.01,2013-06-10 14:17:00,
2013-06-10 07:25:00,60.9,56.0,29.99,East,81,0.0,0.0,84,0.00,,---,0.00,VWS V14.01,2013-06-10 14:25:00,
2013-06-10 07:30:00,61.0,55.8,29.99,East,81,0.0,0.0,83,0.00,,---,0.00,VWS V14.01,2013-06-10 14:30:00,
2013-06-10 07:35:00,61.0,55.8,29.99,East,81,0.0,1.0,83,0.00,,---,0.00,VWS V14.01,2013-06-10 14:35:00,
2013-06-10 07:40:00,61.2,56.0,29.99,East,81,0.0,1.0,83,0.00,,---,0.00,VWS V14.01,2013-06-10 14:40:00,
2013-06-10 07:45:00,61.4,56.2,30.00,East,81,0.0,1.0,83,0.00,,---,0.00,VWS V14.01,2013-06-10 14:45:00,
2013-06-10 07:50:00,61.4,55.9,30.00,East,81,0.0,1.0,82,0.00,,---,0.00,VWS V14.01,2013-06-10 14:50:00,
2013-06-10 07:55:00,61.4,55.9,30.00,East,81,0.0,1.0,82,0.00,,---,0.00,VWS V14.01,2013-06-10 14:55:00,
2013-06-10 08:00:00,61.6,56.4,30.00,East,81,0.0,0.0,83,0.00,,---,0.00,VWS V14.01,2013-06-10 15:00:00,
2013-06-10 08:05:00,61.7,56.2,30.00,East,81,0.0,1.0,82,0.00,,---,0.00,VWS V14.01,2013-06-10 15:05:00,
2013-06-10 08:10:00,61.8,56.2,30.00,East,81,0.0,1.0,82,0.00,,---,0.00,VWS V14.01,2013-06-10 15:10:00,
2013-06-10 08:15:00,61.9,56.3,30.00,East,81,0.0,1.0,82,0.00,,---,0.00,VWS V14.01,2013-06-10 15:15:00,
2013-06-10 08:20:00,62.0,56.1,30.00,East,81,0.0,3.0,81,0.00,,---,0.00,VWS V14.01,2013-06-10 15:20:00,
2013-06-10 08:25:00,62.2,56.3,30.00,East,81,0.0,3.0,81,0.00,,---,0.00,VWS V14.01,2013-06-10 15:25:00,
2013-06-10 08:30:00,62.7,56.5,30.00,East,100,0.0,4.0,80,0.00,,---,0.00,VWS V14.01,2013-06-10 15:30:00,
2013-06-10 08:35:00,63.2,56.6,30.00,East,87,0.0,4.0,79,0.00,,---,0.00,VWS V14.01,2013-06-10 15:35:00,
2013-06-10 08:40:00,63.2,56.6,30.00,SW,226,0.0,4.0,79,0.00,,---,0.00,VWS V14.01,2013-06-10 15:40:00,
2013-06-10 08:45:00,63.2,56.2,30.00,SW,236,0.0,4.0,78,0.00,,---,0.00,VWS V14.01,2013-06-10 15:45:00,
2013-06-10 08:50:00,63.5,56.9,30.00,SW,214,0.0,4.0,79,0.00,,---,0.00,VWS V14.01,2013-06-10 15:50:00,
2013-06-10 08:55:00,63.6,56.3,30.00,SSW,196,0.0,4.0,77,0.00,,---,0.00,VWS V14.01,2013-06-10 15:55:00,
2013-06-10 09:00:00,63.8,56.5,30.01,SE,139,0.0,1.0,77,0.00,,---,0.00,VWS V14.01,2013-06-10 16:00:00,
2013-06-10 09:05:00,63.7,56.0,30.01,SE,139,0.0,1.0,76,0.00,,---,0.00,VWS V14.01,2013-06-10 16:05:00,
2013-06-10 09:10:00,63.9,56.6,30.00,SSW,202,0.0,1.0,77,0.00,,---,0.00,VWS V14.01,2013-06-10 16:10:00,
2013-06-10 09:15:00,64.2,56.1,30.00,SW,215,0.0,1.0,75,0.00,,---,0.00,VWS V14.01,2013-06-10 16:15:00,
2013-06-10 09:20:00,64.5,56.0,30.00,SSW,202,0.0,1.0,74,0.00,,---,0.00,VWS V14.01,2013-06-10 16:20:00,
2013-06-10 09:25:00,64.6,56.1,30.00,ESE,105,0.0,4.0,74,0.00,,---,0.00,VWS V14.01,2013-06-10 16:25:00,
2013-06-10 09:30:00,65.0,56.2,30.00,NNE,26,0.0,1.0,73,0.00,,---,0.00,VWS V14.01,2013-06-10 16:30:00,
2013-06-10 09:35:00,65.7,56.0,30.01,East,90,0.0,2.0,71,0.00,,---,0.00,VWS V14.01,2013-06-10 16:35:00,
2013-06-10 09:40:00,66.2,56.1,30.01,NE,36,1.0,3.0,70,0.00,,---,0.00,VWS V14.01,2013-06-10 16:40:00,
2013-06-10 09:45:00,66.8,55.9,30.00,NE,36,0.0,3.0,68,0.00,,---,0.00,VWS V14.01,2013-06-10 16:45:00,
2013-06-10 09:50:00,66.6,55.7,30.01,NE,36,0.0,3.0,68,0.00,,---,0.00,VWS V14.01,2013-06-10 16:50:00,
2013-06-10 09:55:00,66.3,55.4,30.01,ENE,67,0.0,3.0,68,0.00,,---,0.00,VWS V14.01,2013-06-10 16:55:00,
2013-06-10 10:00:00,66.3,55.8,30.01,NNE,22,0.0,2.0,69,0.00,,---,0.00,VWS V14.01,2013-06-10 17:00:00,
2013-06-10 10:05:00,67.5,56.2,30.00,ENE,66,0.0,3.0,67,0.00,,---,0.00,VWS V14.01,2013-06-10 17:05:00,
2013-06-10 10:10:00,67.9,55.7,30.00,SE,126,0.0,5.0,65,0.00,,---,0.00,VWS V14.01,2013-06-10 17:10:00,
2013-06-10 10:15:00,68.2,56.4,30.00,ESE,121,5.0,7.0,66,0.00,,---,0.00,VWS V14.01,2013-06-10 17:15:00,
2013-06-10 10:20:00,69.1,56.0,30.00,ESE,107,1.0,7.0,63,0.00,,---,0.00,VWS V14.01,2013-06-10 17:20:00,
2013-06-10 10:25:00,69.7,56.1,30.00,South,178,1.0,7.0,62,0.00,,---,0.00,VWS V14.01,2013-06-10 17:25:00,
2013-06-10 10:30:00,69.9,55.8,30.00,NE,36,1.0,1.0,61,0.00,,---,0.00,VWS V14.01,2013-06-10 17:30:00,
2013-06-10 10:35:00,70.3,55.3,30.00,SE,138,2.0,7.0,59,0.00,,---,0.00,VWS V14.01,2013-06-10 17:35:00,
2013-06-10 10:40:00,69.9,55.4,30.00,SE,146,2.0,7.0,60,0.00,,---,0.00,VWS V14.01,2013-06-10 17:40:00,
2013-06-10 10:45:00,70.9,55.9,30.00,SE,126,0.0,7.0,59,0.00,,---,0.00,VWS V14.01,2013-06-10 17:45:00,
2013-06-10 10:50:00,71.1,57.0,30.00,ESE,119,2.0,7.0,61,0.00,,---,0.00,VWS V14.01,2013-06-10 17:50:00,
2013-06-10 10:55:00,70.9,56.3,30.00,NW,304,0.0,7.0,60,0.00,,---,0.00,VWS V14.01,2013-06-10 17:55:00,
2013-06-10 11:00:00,70.6,56.1,30.00,South,182,0.0,10.0,60,0.00,,---,0.00,VWS V14.01,2013-06-10 18:00:00,
2013-06-10 11:05:00,70.2,56.1,30.00,South,187,2.0,10.0,61,0.00,,---,0.00,VWS V14.01,2013-06-10 18:05:00,
2013-06-10 11:10:00,70.2,56.1,30.00,SSW,197,1.0,10.0,61,0.00,,---,0.00,VWS V14.01,2013-06-10 18:10:00,
2013-06-10 11:15:00,70.2,56.1,30.00,SSE,166,0.0,10.0,61,0.00,,---,0.00,VWS V14.01,2013-06-10 18:15:00,
2013-06-10 11:20:00,70.6,56.1,30.00,SSW,209,0.0,10.0,60,0.00,,---,0.00,VWS V14.01,2013-06-10 18:20:00,
2013-06-10 11:25:00,70.9,56.3,30.00,ESE,105,2.0,10.0,60,0.00,,---,0.00,VWS V14.01,2013-06-10 18:25:00,
2013-06-10 11:30:00,72.4,56.8,30.00,ESE,114,1.0,6.0,58,0.00,,---,0.00,VWS V14.01,2013-06-10 18:30:00,
2013-06-10 11:35:00,72.6,56.5,30.00,SSW,206,0.0,8.0,57,0.00,,---,0.00,VWS V14.01,2013-06-10 18:35:00,
2013-06-10 11:40:00,72.4,56.3,30.00,SSE,167,0.0,9.0,57,0.00,,---,0.00,VWS V14.01,2013-06-10 18:40:00,
2013-06-10 11:45:00,72.5,55.9,30.00,SSE,155,0.0,9.0,56,0.00,,---,0.00,VWS V14.01,2013-06-10 18:45:00,
2013-06-10 11:50:00,72.6,56.0,30.00,NNE,32,1.0,9.0,56,0.00,,---,0.00,VWS V14.01,2013-06-10 18:50:00,
2013-06-10 11:55:00,74.3,56.6,30.00,ENE,67,1.0,9.0,54,0.00,,---,0.00,VWS V14.01,2013-06-10 18:55:00,
2013-06-10 12:00:00,75.3,57.0,29.99,ENE,74,0.0,5.0,53,0.00,,---,0.00,VWS V14.01,2013-06-10 19:00:00,
2013-06-10 12:05:00,75.1,56.3,30.00,South,188,1.0,6.0,52,0.00,,---,0.00,VWS V14.01,2013-06-10 19:05:00,
2013-06-10 12:10:00,75.0,55.7,29.99,SSW,198,0.0,6.0,51,0.00,,---,0.00,VWS V14.01,2013-06-10 19:10:00,
2013-06-10 12:15:00,75.5,56.1,29.99,SSE,155,4.0,8.0,51,0.00,,---,0.00,VWS V14.01,2013-06-10 19:15:00,
2013-06-10 12:20:00,75.3,55.9,29.99,SE,130,0.0,8.0,51,0.00,,---,0.00,VWS V14.01,2013-06-10 19:20:00,
2013-06-10 12:25:00,75.9,56.5,29.99,SE,127,4.0,8.0,51,0.00,,---,0.00,VWS V14.01,2013-06-10 19:25:00,
2013-06-10 12:29:00,76.4,55.8,29.99,South,170,2.0,5.0,49,0.00,,---,0.00,VWS V14.01,2013-06-10 19:29:00,
2013-06-10 12:34:00,75.6,56.2,29.99,NE,39,0.0,6.0,51,0.00,,---,0.00,VWS V14.01,2013-06-10 19:34:00,
2013-06-10 12:39:00,75.2,55.3,29.99,SE,127,4.0,10.0,50,0.00,,---,0.00,VWS V14.01,2013-06-10 19:39:00,
2013-06-10 12:44:00,74.4,55.7,29.99,NW,311,2.0,10.0,52,0.00,,---,0.00,VWS V14.01,2013-06-10 19:44:00,
2013-06-10 12:49:00,75.3,56.5,29.98,SE,132,1.0,10.0,52,0.00,,---,0.00,VWS V14.01,2013-06-10 19:49:00,
2013-06-10 12:54:00,76.6,56.6,29.98,ESE,113,1.0,10.0,50,0.00,,---,0.00,VWS V14.01,2013-06-10 19:54:00,
2013-06-10 12:59:00,76.8,56.8,29.98,SSE,157,5.0,5.0,50,0.00,,---,0.00,VWS V14.01,2013-06-10 19:59:00,
2013-06-10 13:04:00,76.0,56.6,29.98,SSW,204,1.0,8.0,51,0.00,,---,0.00,VWS V14.01,2013-06-10 20:04:00,
2013-06-10 13:09:00,76.0,56.6,29.98,SSE,154,6.0,9.0,51,0.00,,---,0.00,VWS V14.01,2013-06-10 20:09:00,
2013-06-10 13:14:00,75.9,56.5,29.98,SSE,150,4.0,9.0,51,0.00,,---,0.00,VWS V14.01,2013-06-10 20:14:00,
2013-06-10 13:19:00,76.5,57.6,29.97,WNW,299,0.0,9.0,52,0.00,,---,0.00,VWS V14.01,2013-06-10 20:19:00,
2013-06-10 13:24:00,76.2,57.8,29.97,SSW,195,0.0,11.0,53,0.00,,---,0.00,VWS V14.01,2013-06-10 20:24:00,
2013-06-10 13:29:00,76.9,57.4,29.97,SSE,149,1.0,4.0,51,0.00,,---,0.00,VWS V14.01,2013-06-10 20:29:00,
2013-06-10 13:34:00,77.2,57.1,29.97,SSE,151,0.0,8.0,50,0.00,,---,0.00,VWS V14.01,2013-06-10 20:34:00,
2013-06-10 13:39:00,76.7,57.2,29.97,SSE,148,1.0,8.0,51,0.00,,---,0.00,VWS V14.01,2013-06-10 20:39:00,
2013-06-10 13:44:00,76.6,57.1,29.97,SSE,154,0.0,9.0,51,0.00,,---,0.00,VWS V14.01,2013-06-10 20:44:00,
2013-06-10 13:49:00,77.4,57.9,29.97,WSW,258,5.0,9.0,51,0.00,,---,0.00,VWS V14.01,2013-06-10 20:49:00,
2013-06-10 13:54:00,78.0,57.9,29.97,ESE,119,0.0,9.0,50,0.00,,---,0.00,VWS V14.01,2013-06-10 20:54:00,
2013-06-10 13:59:00,77.8,58.2,29.97,SSE,164,1.0,5.0,51,0.00,,---,0.00,VWS V14.01,2013-06-10 20:59:00,
2013-06-10 14:04:00,77.0,58.6,29.97,SE,139,0.0,12.0,53,0.00,,---,0.00,VWS V14.01,2013-06-10 21:04:00,
2013-06-10 14:09:00,77.2,58.2,29.96,SE,144,5.0,12.0,52,0.00,,---,0.00,VWS V14.01,2013-06-10 21:09:00,
2013-06-10 14:14:00,78.0,58.4,29.97,WSW,254,0.0,12.0,51,0.00,,---,0.00,VWS V14.01,2013-06-10 21:14:00,
2013-06-10 14:19:00,78.7,58.0,29.97,WSW,240,3.0,12.0,49,0.00,,---,0.00,VWS V14.01,2013-06-10 21:19:00,
2013-06-10 14:24:00,78.7,58.0,29.97,South,188,1.0,12.0,49,0.00,,---,0.00,VWS V14.01,2013-06-10 21:24:00,
2013-06-10 14:29:00,78.4,58.2,29.96,NE,36,0.0,4.0,50,0.00,,---,0.00,VWS V14.01,2013-06-10 21:29:00,
2013-06-10 14:34:00,79.0,58.2,29.97,WNW,303,3.0,6.0,49,0.00,,---,0.00,VWS V14.01,2013-06-10 21:34:00,
2013-06-10 14:39:00,78.3,58.2,29.96,SSW,209,2.0,7.0,50,0.00,,---,0.00,VWS V14.01,2013-06-10 21:39:00,
2013-06-10 14:44:00,77.9,57.8,29.97,South,171,5.0,11.0,50,0.00,,---,0.00,VWS V14.01,2013-06-10 21:44:00,
2013-06-10 14:49:00,77.4,57.9,29.96,NW,305,0.0,11.0,51,0.00,,---,0.00,VWS V14.01,2013-06-10 21:49:00,
2013-06-10 14:54:00,78.1,58.5,29.96,SW,217,2.0,11.0,51,0.00,,---,0.00,VWS V14.01,2013-06-10 21:54:00,
2013-06-10 14:59:00,78.8,58.6,29.96,SSE,155,0.0,5.0,50,0.00,,---,0.00,VWS V14.01,2013-06-10 21:59:00,
2013-06-10 15:04:00,79.3,58.5,29.96,SW,225,2.0,9.0,49,0.00,,---,0.00,VWS V14.01,2013-06-10 22:04:00,
2013-06-10 15:09:00,79.4,58.0,29.96,West,275,2.0,10.0,48,0.00,,---,0.00,VWS V14.01,2013-06-10 22:09:00,
2013-06-10 15:14:00,79.2,58.4,29.95,WSW,242,0.0,10.0,49,0.00,,---,0.00,VWS V14.01,2013-06-10 22:14:00,
2013-06-10 15:19:00,79.4,58.0,29.95,SSE,147,6.0,10.0,48,0.00,,---,0.00,VWS V14.01,2013-06-10 22:19:00,
2013-06-10 15:24:00,79.2,57.8,29.96,West,281,5.0,10.0,48,0.00,,---,0.00,VWS V14.01,2013-06-10 22:24:00,
2013-06-10 15:29:00,79.2,57.8,29.96,SSW,202,3.0,6.0,48,0.00,,---,0.00,VWS V14.01,2013-06-10 22:29:00,
2013-06-10 15:34:00,78.6,57.3,29.96,WNW,293,3.0,8.0,48,0.00,,---,0.00,VWS V14.01,2013-06-10 22:34:00,
2013-06-10 15:39:00,78.6,57.3,29.96,SE,143,5.0,8.0,48,0.00,,---,0.00,VWS V14.01,2013-06-10 22:39:00,
2013-06-10 15:44:00,78.7,57.4,29.96,NW,319,1.0,8.0,48,0.00,,---,0.00,VWS V14.01,2013-06-10 22:44:00,
2013-06-10 15:49:00,78.8,57.5,29.95,WSW,242,0.0,8.0,48,0.00,,---,0.00,VWS V14.01,2013-06-10 22:49:00,
2013-06-10 15:54:00,78.9,57.0,29.95,NW,305,4.0,8.0,47,0.00,,---,0.00,VWS V14.01,2013-06-10 22:54:00,
2013-06-10 15:59:00,78.5,57.2,29.95,West,281,1.0,5.0,48,0.00,,---,0.00,VWS V14.01,2013-06-10 22:59:00,
2013-06-10 16:04:00,78.7,56.8,29.95,SSW,213,0.0,7.0,47,0.00,,---,0.00,VWS V14.01,2013-06-10 23:04:00,
2013-06-10 16:09:00,78.4,56.5,29.95,West,276,3.0,7.0,47,0.00,,---,0.00,VWS V14.01,2013-06-10 23:09:00,
2013-06-10 16:14:00,78.5,56.6,29.95,West,270,0.0,7.0,47,0.00,,---,0.00,VWS V14.01,2013-06-10 23:14:00,
2013-06-10 16:19:00,79.4,56.8,29.95,South,171,7.0,7.0,46,0.00,,---,0.00,VWS V14.01,2013-06-10 23:19:00,
2013-06-10 16:24:00,79.5,56.9,29.95,SSE,149,0.0,9.0,46,0.00,,---,0.00,VWS V14.01,2013-06-10 23:24:00,
2013-06-10 16:29:00,79.6,57.0,29.95,SW,228,0.0,3.0,46,0.00,,---,0.00,VWS V14.01,2013-06-10 23:29:00,
2013-06-10 16:34:00,79.7,56.5,29.95,West,276,0.0,6.0,45,0.00,,---,0.00,VWS V14.01,2013-06-10 23:34:00,
2013-06-10 16:39:00,79.2,56.0,29.95,WSW,244,1.0,11.0,45,0.00,,---,0.00,VWS V14.01,2013-06-10 23:39:00,
2013-06-10 16:44:00,79.0,56.5,29.95,WSW,242,2.0,11.0,46,0.00,,---,0.00,VWS V14.01,2013-06-10 23:44:00,
2013-06-10 16:49:00,78.9,56.4,29.95,SW,228,2.0,11.0,46,0.00,,---,0.00,VWS V14.01,2013-06-10 23:49:00,
2013-06-10 16:54:00,78.7,56.2,29.95,WSW,255,1.0,11.0,46,0.00,,---,0.00,VWS V14.01,2013-06-10 23:54:00,
2013-06-10 16:59:00,78.7,56.8,29.95,SSW,202,3.0,4.0,47,0.00,,---,0.00,VWS V14.01,2013-06-10 23:59:00,
2013-06-10 17:04:00,78.4,56.5,29.95,SW,229,0.0,6.0,47,0.00,,---,0.00,VWS V14.01,2013-06-11 00:04:00,
2013-06-10 17:09:00,78.6,56.7,29.95,SSW,195,1.0,6.0,47,0.00,,---,0.00,VWS V14.01,2013-06-11 00:09:00,
2013-06-10 17:14:00,78.4,57.1,29.95,SSW,198,2.0,6.0,48,0.00,,---,0.00,VWS V14.01,2013-06-11 00:14:00,
2013-06-10 17:19:00,77.8,56.6,29.94,NW,306,0.0,6.0,48,0.00,,---,0.00,VWS V14.01,2013-06-11 00:19:00,
2013-06-10 17:24:00,77.6,56.4,29.94,WNW,290,0.0,6.0,48,0.00,,---,0.00,VWS V14.01,2013-06-11 00:24:00,
2013-06-10 17:29:00,77.4,56.2,29.94,West,260,5.0,5.0,48,0.00,,---,0.00,VWS V14.01,2013-06-11 00:29:00,
2013-06-10 17:34:00,77.2,56.6,29.94,West,273,3.0,5.0,49,0.00,,---,0.00,VWS V14.01,2013-06-11 00:34:00,
2013-06-10 17:39:00,76.8,56.2,29.94,WSW,255,2.0,7.0,49,0.00,,---,0.00,VWS V14.01,2013-06-11 00:39:00,
2013-06-10 17:44:00,76.3,56.3,29.94,North,360,0.0,8.0,50,0.00,,---,0.00,VWS V14.01,2013-06-11 00:44:00,
2013-06-10 17:49:00,75.8,55.9,29.94,ESE,117,0.0,8.0,50,0.00,,---,0.00,VWS V14.01,2013-06-11 00:49:00,
2013-06-10 17:54:00,75.8,55.9,29.94,South,185,5.0,8.0,50,0.00,,---,0.00,VWS V14.01,2013-06-11 00:54:00,
2013-06-10 17:59:00,75.5,56.1,29.94,WSW,252,0.0,3.0,51,0.00,,---,0.00,VWS V14.01,2013-06-11 00:59:00,
2013-06-10 18:04:00,75.5,56.7,29.94,West,279,0.0,4.0,52,0.00,,---,0.00,VWS V14.01,2013-06-11 01:04:00,
2013-06-10 18:09:00,75.2,56.4,29.94,West,279,0.0,6.0,52,0.00,,---,0.00,VWS V14.01,2013-06-11 01:09:00,
2013-06-10 18:14:00,74.9,56.6,29.94,West,270,3.0,11.0,53,0.00,,---,0.00,VWS V14.01,2013-06-11 01:14:00,
2013-06-10 18:19:00,74.4,57.2,29.94,WNW,299,0.0,11.0,55,0.00,,---,0.00,VWS V14.01,2013-06-11 01:19:00,
2013-06-10 18:24:00,74.1,56.9,29.94,West,280,0.0,11.0,55,0.00,,---,0.00,VWS V14.01,2013-06-11 01:24:00,
2013-06-10 18:29:00,73.7,57.0,29.94,WNW,302,3.0,5.0,56,0.00,,---,0.00,VWS V14.01,2013-06-11 01:29:00,
2013-06-10 18:34:00,73.3,56.7,29.94,NNW,327,0.0,5.0,56,0.00,,---,0.00,VWS V14.01,2013-06-11 01:34:00,
2013-06-10 18:39:00,72.8,56.7,29.94,WNW,288,0.0,5.0,57,0.00,,---,0.00,VWS V14.01,2013-06-11 01:39:00,
2013-06-10 18:44:00,72.1,56.5,29.94,WNW,302,0.0,5.0,58,0.00,,---,0.00,VWS V14.01,2013-06-11 01:44:00,
2013-06-10 18:49:00,71.4,56.8,29.94,NW,314,2.0,5.0,60,0.00,,---,0.00,VWS V14.01,2013-06-11 01:49:00,
2013-06-10 18:54:00,70.8,57.2,29.95,WSW,251,2.0,5.0,62,0.00,,---,0.00,VWS V14.01,2013-06-11 01:54:00,
2013-06-10 18:59:00,70.4,56.8,29.95,NNW,345,0.0,1.0,62,0.00,,---,0.00,VWS V14.01,2013-06-11 01:59:00,
2013-06-10 19:04:00,70.1,56.9,29.95,WNW,297,2.0,4.0,63,0.00,,---,0.00,VWS V14.01,2013-06-11 02:04:00,
2013-06-10 19:09:00,69.7,56.6,29.95,WSW,244,2.0,4.0,63,0.00,,---,0.00,VWS V14.01,2013-06-11 02:09:00,
2013-06-10 19:14:00,69.4,56.7,29.95,WSW,248,0.0,4.0,64,0.00,,---,0.00,VWS V14.01,2013-06-11 02:14:00,
2013-06-10 19:19:00,69.1,56.4,29.95,WSW,242,0.0,4.0,64,0.00,,---,0.00,VWS V14.01,2013-06-11 02:19:00,
2013-06-10 19:24:00,68.6,56.4,29.95,WNW,287,0.0,5.0,65,0.00,,---,0.00,VWS V14.01,2013-06-11 02:24:00,
2013-06-10 19:29:00,68.3,56.5,29.95,SW,230,0.0,2.0,66,0.00,,---,0.00,VWS V14.01,2013-06-11 02:29:00,
2013-06-10 19:34:00,68.1,56.7,29.95,West,269,0.0,3.0,67,0.00,,---,0.00,VWS V14.01,2013-06-11 02:34:00,
2013-06-10 19:39:00,67.7,56.4,29.95,West,265,0.0,3.0,67,0.00,,---,0.00,VWS V14.01,2013-06-11 02:39:00,
2013-06-10 19:44:00,67.5,56.6,29.95,WNW,291,0.0,3.0,68,0.00,,---,0.00,VWS V14.01,2013-06-11 02:44:00,
2013-06-10 19:49:00,67.1,56.6,29.95,WNW,296,0.0,3.0,69,0.00,,---,0.00,VWS V14.01,2013-06-11 02:49:00,
2013-06-10 19:54:00,66.9,56.8,29.95,WSW,256,0.0,3.0,70,0.00,,---,0.00,VWS V14.01,2013-06-11 02:54:00,
2013-06-10 19:59:00,66.7,56.6,29.95,WSW,250,1.0,1.0,70,0.00,,---,0.00,VWS V14.01,2013-06-11 02:59:00,
2013-06-10 20:04:00,66.5,56.8,29.95,West,277,0.0,2.0,71,0.00,,---,0.00,VWS V14.01,2013-06-11 03:04:00,
2013-06-10 20:09:00,66.2,56.5,29.95,West,273,0.0,2.0,71,0.00,,---,0.00,VWS V14.01,2013-06-11 03:09:00,
2013-06-10 20:14:00,65.9,56.6,29.95,West,273,0.0,2.0,72,0.00,,---,0.00,VWS V14.01,2013-06-11 03:14:00,
2013-06-10 20:19:00,65.7,56.4,29.95,West,262,0.0,2.0,72,0.00,,---,0.00,VWS V14.01,2013-06-11 03:19:00,
2013-06-10 20:24:00,65.5,56.6,29.95,West,262,0.0,2.0,73,0.00,,---,0.00,VWS V14.01,2013-06-11 03:24:00,
2013-06-10 20:29:00,65.3,56.4,29.95,West,262,0.0,0.0,73,0.00,,---,0.00,VWS V14.01,2013-06-11 03:29:00,
2013-06-10 20:34:00,65.1,56.6,29.95,West,267,0.0,1.0,74,0.00,,---,0.00,VWS V14.01,2013-06-11 03:34:00,
2013-06-10 20:39:00,64.9,56.4,29.95,West,267,0.0,1.0,74,0.00,,---,0.00,VWS V14.01,2013-06-11 03:39:00,
2013-06-10 20:44:00,64.7,56.6,29.95,WSW,243,0.0,1.0,75,0.00,,---,0.00,VWS V14.01,2013-06-11 03:44:00,
2013-06-10 20:49:00,64.5,56.4,29.95,WSW,242,0.0,1.0,75,0.00,,---,0.00,VWS V14.01,2013-06-11 03:49:00,
2013-06-10 20:54:00,64.4,56.3,29.95,WSW,242,0.0,1.0,75,0.00,,---,0.00,VWS V14.01,2013-06-11 03:54:00,
2013-06-10 20:59:00,64.2,56.5,29.96,SW,236,0.0,0.0,76,0.00,,---,0.00,VWS V14.01,2013-06-11 03:59:00,
2013-06-10 21:01:00,64.2,56.5,29.96,SW,236,0.0,0.0,76,0.00,,---,0.00,VWS V14.01,2013-06-11 04:01:00,
2013-06-10 21:06:00,64.0,56.3,29.96,SW,236,0.0,0.0,76,0.00,,---,0.00,VWS V14.01,2013-06-11 04:06:00,
2013-06-10 21:11:00,63.8,56.5,29.96,SW,236,0.0,1.0,77,0.00,,---,0.00,VWS V14.01,2013-06-11 04:11:00,
2013-06-10 21:16:00,63.7,56.7,29.96,SW,236,0.0,1.0,78,0.00,,---,0.00,VWS V14.01,2013-06-11 04:16:00,
2013-06-10 21:21:00,63.5,56.5,29.96,SW,236,0.0,1.0,78,0.00,,---,0.00,VWS V14.01,2013-06-11 04:21:00,
2013-06-10 21:26:00,63.3,56.3,29.96,SW,236,0.0,1.0,78,0.00,,---,0.00,VWS V14.01,2013-06-11 04:26:00,
2013-06-10 21:31:00,63.1,56.5,29.97,SW,236,0.0,0.0,79,0.00,,---,0.00,VWS V14.01,2013-06-11 04:31:00,
2013-06-10 21:36:00,62.9,56.6,29.97,SW,236,0.0,0.0,80,0.00,,---,0.00,VWS V14.01,2013-06-11 04:36:00,
2013-06-10 21:41:00,62.8,56.5,29.96,SW,236,0.0,0.0,80,0.00,,---,0.00,VWS V14.01,2013-06-11 04:41:00,
2013-06-10 21:46:00,62.6,56.3,29.97,SW,236,0.0,0.0,80,0.00,,---,0.00,VWS V14.01,2013-06-11 04:46:00,
2013-06-10 21:51:00,62.4,56.5,29.97,SW,236,0.0,0.0,81,0.00,,---,0.00,VWS V14.01,2013-06-11 04:51:00,
2013-06-10 21:57:00,62.3,56.4,29.97,SW,236,0.0,0.0,81,0.00,,---,0.00,VWS V14.01,2013-06-11 04:57:00,
2013-06-10 22:02:00,62.2,56.6,29.97,SW,236,0.0,0.0,82,0.00,,---,0.00,VWS V14.01,2013-06-11 05:02:00,
2013-06-10 22:07:00,62.0,56.5,29.97,SW,236,0.0,0.0,82,0.00,,---,0.00,VWS V14.01,2013-06-11 05:07:00,
2013-06-10 22:12:00,61.9,56.3,29.98,SW,236,0.0,0.0,82,0.00,,---,0.00,VWS V14.01,2013-06-11 05:12:00,
2013-06-10 22:16:00,61.7,56.2,29.98,SW,236,0.0,0.0,82,0.00,,---,0.00,VWS V14.01,2013-06-11 05:16:00,
2013-06-10 22:22:00,61.5,56.3,29.98,SW,236,0.0,0.0,83,0.00,,---,0.00,VWS V14.01,2013-06-11 05:22:00,
2013-06-10 22:27:00,61.3,56.1,29.98,SW,236,0.0,0.0,83,0.00,,---,0.00,VWS V14.01,2013-06-11 05:27:00,
2013-06-10 22:32:00,61.2,56.3,29.98,SW,236,0.0,0.0,84,0.00,,---,0.00,VWS V14.01,2013-06-11 05:32:00,
2013-06-10 22:37:00,61.2,56.3,29.98,SW,236,0.0,0.0,84,0.00,,---,0.00,VWS V14.01,2013-06-11 05:37:00,
2013-06-10 22:42:00,61.1,56.2,29.98,WSW,237,0.0,2.0,84,0.00,,---,0.00,VWS V14.01,2013-06-11 05:42:00,
2013-06-10 22:47:00,61.1,56.2,29.98,WSW,237,0.0,2.0,84,0.00,,---,0.00,VWS V14.01,2013-06-11 05:47:00,
2013-06-10 22:52:00,61.0,56.1,29.98,WSW,237,0.0,2.0,84,0.00,,---,0.00,VWS V14.01,2013-06-11 05:52:00,
2013-06-10 22:57:00,60.9,56.4,29.98,WSW,238,0.0,2.0,85,0.00,,---,0.00,VWS V14.01,2013-06-11 05:57:00,
2013-06-10 23:02:00,60.8,56.3,29.98,WSW,238,0.0,0.0,85,0.00,,---,0.00,VWS V14.01,2013-06-11 06:02:00,
2013-06-10 23:07:00,60.6,56.1,29.98,WSW,238,0.0,0.0,85,0.00,,---,0.00,VWS V14.01,2013-06-11 06:07:00,
2013-06-10 23:12:00,60.5,56.0,29.98,WSW,238,0.0,0.0,85,0.00,,---,0.00,VWS V14.01,2013-06-11 06:12:00,
2013-06-10 23:17:00,60.4,56.2,29.98,WSW,238,0.0,0.0,86,0.00,,---,0.00,VWS V14.01,2013-06-11 06:17:00,
2013-06-10 23:22:00,60.3,56.1,29.98,WSW,238,0.0,0.0,86,0.00,,---,0.00,VWS V14.01,2013-06-11 06:22:00,
2013-06-10 23:27:00,60.1,55.9,29.98,WSW,238,0.0,0.0,86,0.00,,---,0.00,VWS V14.01,2013-06-11 06:27:00,
2013-06-10 23:32:00,60.0,55.8,29.98,WSW,238,0.0,0.0,86,0.00,,---,0.00,VWS V14.01,2013-06-11 06:32:00,
2013-06-10 23:37:00,60.0,56.1,29.98,WSW,238,0.0,0.0,87,0.00,,---,0.00,VWS V14.01,2013-06-11 06:37:00,
2013-06-10 23:42:00,60.0,56.1,29.98,NNW,338,0.0,1.0,87,0.00,,---,0.00,VWS V14.01,2013-06-11 06:42:00,
2013-06-10 23:47:00,59.9,56.0,29.98,NNW,338,0.0,1.0,87,0.00,,---,0.00,VWS V14.01,2013-06-11 06:47:00,
2013-06-10 23:52:00,59.7,55.8,29.98,NNW,338,0.0,1.0,87,0.00,,---,0.00,VWS V14.01,2013-06-11 06:52:00,
2013-06-10 23:57:00,59.7,55.8,29.98,NNW,338,0.0,1.0,87,0.00,,---,0.00,VWS V14.01,2013-06-11 06:57:00,